Regional Weather Roundup
Issued by NWS Portland, ME

Current Version | Previous Version | Text Only | Print | Product List | Glossary Off
Versions: 1 2 3 4 5 6 7 8 9 10 11 12 13 14 15 16 17 18 19 20 21 22 23 24 25 26 27 28 29 30 31 32 33 34 35 36 37 38 39 40 41 42 43 44 45 46 47 48 49 50
000 ASUS41 KGYX 172010 RWRGYX WEATHER ROUNDUP FOR MAINE AND NEW HAMPSHIRE NATIONAL WEATHER SERVICE GRAY ME 400 PM EDT THU AUG 17 2017 MEZ002-005-006-010-012-015-018-020-021-024-026-027-029-172100- MAINE CITY SKY/WX TMP DP RH WIND PRES REMARKS PORTLAND MOSUNNY 82 48 30 W13 29.93F SANFORD SUNNY 80 53 39 W12 29.96F BAR HARBOR SUNNY 77 46 33 W10G18 29.89S WISCASSET MOSUNNY 81 51 35 VRB7 29.93F ROCKLAND MOSUNNY 78 52 40 W15 29.91F FRYEBURG SUNNY 79 52 38 W9 29.95F LEWISTONAUBURN CLOUDY 77 53 43 NW14 29.94F AUGUSTA MOSUNNY 79 49 34 NW12 29.93F WATERVILLE MOSUNNY 77 51 40 NW6 29.90S BANGOR MOSUNNY 79 44 28 NW15G22 29.90S GREENVILLE N/A 70 45 40 NW16G23 29.91F MILLINOCKET SUNNY 75 44 33 NW10G21 29.89S HOULTON CLOUDY 71 51 49 NW8 29.86R PRESQUE ISLE CLOUDY 68 49 50 NW10G23 29.89R FRENCHVILLE CLOUDY 63 48 58 NW18G25 29.90R CARIBOU CLOUDY 68 50 52 NW13G22 29.88R $$ NHZ002-005-008-009-011-012-014-172100- NEW HAMPSHIRE CITY SKY/WX TMP DP RH WIND PRES REMARKS PORTSMOUTH PTSUNNY 81 52 36 W9 29.95S ROCHESTER MOSUNNY 80 51 36 NW12 29.96S NASHUA SUNNY 80 51 36 W7 29.98F MANCHESTER PTSUNNY 81 48 31 VRB7 29.96F CONCORD SUNNY 82 52 35 NW9G18 29.97F LACONIA SUNNY 76 53 44 W8 29.98F PLYMOUTH FAIR 77 50 38 W8 29.98S BERLIN PTSUNNY 74 50 42 NW8G20 29.98F WHITEFIELD MOSUNNY 74 53 48 W10G16 30.00F JAFFREY SUNNY 79 48 33 W12 30.02F KEENE N/A N/A N/A N/A MISG N/A LEBANON CLOUDY 79 51 37 VRB6 29.98F MT WASHINGTON FOG 45 45 100 NW37G45 N/A VSB 1/16 $$ VTZ005-007-008-172100- VERMONT CITY SKY/WX TMP DP RH WIND PRES REMARKS ST JOHNSBURY N/A 75 55 49 MISG 29.97F MONTPELIER SUNNY 72 53 51 N8 30.05F BURLINGTON PTSUNNY 79 53 40 N6 29.98F $$ MAZ007-012-024-CTZ003-RIZ002-NYZ038-NYZ072-172100- SOUTHERN NEW ENGLAND AND NY CITY SKY/WX TMP DP RH WIND PRES REMARKS BOSTON PTSUNNY 81 48 31 W10 29.97F WORCESTER MOSUNNY 76 44 32 W6 30.02F NANTUCKET SUNNY 70 59 68 S8 30.02F PROVIDENCE MOSUNNY 80 53 39 S14 30.00F HARTFORD MOSUNNY 81 52 36 S5 29.99F ALBANY PTSUNNY 80 48 32 CALM 29.99F NEW YORK CITY MOSUNNY 80 61 52 S10G17 29.99F $$ ANZ081-ANZ082-ANZ150-NHZ014-MEZ023>029-172100- COASTAL MARINE OBSERVATIONS STATION/POSITION TIME TEMP WIND PRES WAVE AIR SEA DIR/SP/G HT/PER (UTC) (F) (DEG/KT/KT) (MB) (FT/S) MOUNT DESERT ROC 2000 61 1012.7F MATINICUS ROCK 1900 62 230/ 16/ 17 1013.4F ISLE OF SHOALS 1900 76 260/ 11/ 12 1014.4F JEFFREYS LEDGE 1906 67 N/A 3/10 CASHES LEDGE BUO 1950 72 68 1014.1F 4/10 GEORGES BANK BUO 1850 65 65 1015.4 3/ 9 $$ .............KEY.............. WCI - WIND CHILL TC - TEMPERATURE IN CELSIUS VSB - VISIBILITY IN MILES HX - HEAT INDEX FAIR- INDICATES FEW OR NO CLOUDS BELOW 12,000 FT, WITH NO SIGNIFICANT WEATHER AND/OR OBSTRUCTIONS TO VISIBILITY.

USA.gov is the U.S. government's official web portal to all federal, state and local government web resources and services.